CW4224 Weather Reports


Display with metric or nautical units.
time (UTC)temp
F
wind
direction
speed
MPH
gust
MPH
rain 1hr
in
rain 24hr
in
rain mn
in
humidity
%
barometer
mb
20260510230027 84 305 2.0 0.0 0.00 0.00 0.08 69 1015.6
20260510224513 85 291 2.0 0.0 0.00 0.00 0.08 69 1015.6
20260510223001 85 299 4.0 0.0 0.00 0.00 0.08 68 1015.6
20260510221600 86 277 2.0 0.0 0.00 0.00 0.08 64 1015.8
20260510220047 87 255 2.0 0.0 0.00 0.00 0.08 62 1015.6
20260510214538 87 298 3.0 0.0 0.00 0.00 0.08 64 1015.6
20260510213016 88 257 3.0 0.0 0.00 0.00 0.08 61 1015.7
20260510211603 89 316 3.0 0.0 0.00 0.00 0.08 60 1015.7
20260510210051 89 239 4.0 0.0 0.00 0.00 0.08 57 1015.7
20260510204541 90 235 2.0 0.0 0.00 0.00 0.08 57 1015.7
20260510203032 91 273 3.0 0.0 0.00 0.00 0.08 54 1015.7
20260510201528 91 298 2.0 0.0 0.00 0.00 0.08 53 1015.5
20260510200021 92 65 2.0 0.0 0.00 0.00 0.08 53 1015.5
20260510194609 93 56 2.0 0.0 0.00 0.00 0.08 54 1015.5
20260510193053 93 130 3.0 0.0 0.00 0.00 0.08 53 1015.7
20260510191542 94 288 2.0 0.0 0.00 0.00 0.08 52 1015.6
20260510190035 93 90 3.0 0.0 0.00 0.00 0.08 52 1015.6
20260510184514 93 195 2.0 0.0 0.00 0.00 0.08 53 1015.8
20260510183103 95 146 2.0 0.0 0.00 0.00 0.08 52 1016.0
20260510181550 95 113 1.0 0.0 0.00 0.00 0.08 50 1016.1
20260510180049 94 42 2.0 0.0 0.00 0.00 0.08 52 1016.2
20260510174528 93 132 2.0 0.0 0.00 0.00 0.08 56 1016.5
20260510173022 94 120 2.0 0.0 0.00 0.00 0.08 52 1016.6
20260510171506 94 158 2.0 0.0 0.00 0.00 0.08 54 1016.6
20260510170058 93 104 2.0 0.0 0.00 0.00 0.08 56 1016.9
20260510164550 92 161 2.0 0.0 0.00 0.00 0.08 57 1017.0
20260510163106 91 92 3.0 0.0 0.00 0.00 0.08 57 1016.9
20260510161545 91 153 2.0 0.0 0.00 0.00 0.08 59 1017.1
20260510160012 90 107 1.0 0.0 0.00 0.00 0.08 63 1017.1
20260510154502 89 60 3.0 0.0 0.00 0.00 0.08 65 1017.1
20260510153003 88 147 4.0 0.0 0.00 0.00 0.08 66 1017.0
20260510151556 89 72 2.0 0.0 0.00 0.00 0.08 65 1017.1
20260510150051 87 105 2.0 0.0 0.00 0.00 0.08 66 1017.1
20260510144545 85 98 3.0 0.0 0.00 0.00 0.08 69 1017.1
20260510143040 84 98 1.0 0.0 0.00 0.00 0.08 74 1017.1
20260510141512 82 127 4.0 0.0 0.00 0.00 0.08 76 1017.0
20260510140054 81 82 5.0 0.0 0.00 0.00 0.08 79 1016.6
20260510134556 80 88 2.0 0.0 0.00 0.00 0.08 83 1016.6
20260510133050 77 115 2.0 0.0 0.00 0.00 0.08 88 1016.6
20260510131543 75 101 3.0 0.0 0.00 0.00 0.08 89 1016.6
20260510130034 74 123 3.0 0.0 0.00 0.00 0.08 91 1016.5
20260510124513 73 120 2.0 0.0 0.00 0.00 0.08 92 1016.5
20260510123018 73 121 2.0 0.0 0.00 0.00 0.08 92 1016.5
20260510121555 72 99 1.0 0.0 0.00 0.00 0.08 92 1016.3
20260510120048 72 61 0.0 0.0 0.00 0.00 0.08 92 1016.1
20260510114535 71 61 0.0 0.0 0.00 0.00 0.08 92 1015.8
20260510113020 71 36 0.0 0.0 0.00 0.00 0.08 91 1015.5
20260510111508 71 29 0.0 0.0 0.00 0.00 0.08 91 1015.4
20260510110105 71 29 0.0 0.0 0.00 0.00 0.08 91 1015.2
20260510104553 71 29 0.0 0.0 0.00 0.00 0.08 91 1014.9
20260510103031 71 29 0.0 0.0 0.00 0.00 0.08 91 1014.5
20260510101515 71 85 0.0 0.0 0.00 0.00 0.08 91 1014.3
20260510100006 71 85 0.0 0.0 0.00 0.00 0.08 90 1014.2
20260510094556 71 85 0.0 0.0 0.00 0.00 0.08 90 1014.3
20260510093056 72 85 0.0 0.0 0.00 0.00 0.08 90 1014.1
20260510091519 72 85 0.0 0.0 0.00 0.00 0.08 90 1013.8
20260510090108 72 85 0.0 0.0 0.00 0.00 0.08 90 1013.9
20260510084551 72 85 0.0 0.0 0.00 0.00 0.08 90 1013.4
20260510083039 72 103 0.0 0.0 0.00 0.00 0.08 90 1013.5
20260510081532 72 80 0.0 0.0 0.00 0.00 0.08 90 1013.6
20260510080016 72 74 0.0 0.0 0.00 0.00 0.08 90 1013.6
20260510074601 73 73 0.0 0.0 0.00 0.00 0.08 89 1013.6
20260510073103 73 74 0.0 0.0 0.00 0.00 0.08 89 1013.7
20260510071539 73 350 0.0 0.0 0.00 0.00 0.07 89 1013.9
20260510070029 73 350 1.0 0.0 0.00 0.00 0.07 89 1014.0
20260510064517 74 81 1.0 0.0 0.00 0.00 0.07 88 1014.0
20260510063048 74 94 1.0 0.0 0.00 0.00 0.07 88 1014.0
20260510061536 75 109 1.0 0.0 0.00 0.00 0.07 88 1014.5
20260510060033 75 117 1.0 0.0 0.00 0.00 0.07 87 1014.7
20260510054515 76 55 0.0 0.0 0.00 0.00 0.07 86 1015.0
20260510053002 76 347 0.0 0.0 0.00 0.00 0.05 85 1015.1
20260510051607 77 93 1.0 0.0 0.00 0.00 0.00 84 1015.1
20260510050059 77 93 0.0 0.0 0.00 0.00 0.00 84 1015.3
20260510044553 77 93 0.0 0.0 0.00 0.00 0.00 84 1015.4
20260510043025 77 93 0.0 0.0 0.00 0.00 0.00 84 1015.4
20260510041504 77 93 0.0 0.0 0.00 0.00 0.00 84 1015.3
20260510040101 77 93 0.0 0.0 0.00 0.00 0.00 84 1015.2
20260510034542 78 110 0.0 0.0 0.00 0.00 0.00 84 1015.1
20260510033055 78 115 0.0 0.0 0.00 0.00 0.00 83 1015.1
20260510031538 78 261 0.0 0.0 0.00 0.00 0.00 83 1015.1
20260510030016 79 261 0.0 0.0 0.00 0.00 0.00 82 1015.1
20260510024503 79 261 0.0 0.0 0.00 0.00 0.00 82 1015.0
20260510023002 79 261 0.0 0.0 0.00 0.00 0.00 81 1015.0
20260510021546 80 306 0.0 0.0 0.00 0.00 0.00 81 1014.9
20260510020041 80 295 0.0 0.0 0.00 0.00 0.00 80 1014.8
20260510014538 80 321 0.0 0.0 0.00 0.00 0.00 79 1014.5
20260510013002 80 321 1.0 0.0 0.00 0.00 0.00 78 1014.5
20260510011551 81 292 1.0 0.0 0.00 0.00 0.00 77 1014.3
20260510010049 81 253 1.0 0.0 0.00 0.00 0.00 76 1014.0
20260510004547 82 311 1.0 0.0 0.00 0.00 0.00 74 1014.0
20260510003025 82 301 0.0 0.0 0.00 0.00 0.00 71 1013.7
20260510001502 83 300 0.0 0.0 0.00 0.00 0.00 69 1013.4
20260510000100 84 320 0.0 0.0 0.00 0.00 0.00 69 1013.3
20260509234557 84 130 0.0 0.0 0.00 0.00 0.00 66 1013.0
20260509233033 85 285 1.0 0.0 0.00 0.00 0.00 64 1012.9
20260509231529 86 128 0.0 0.0 0.00 0.00 0.00 61 1012.9